CAPE
0 0 0 0 0 0 0 0 0 0 0 0 0 0 0 0 0 0 0 0 0 0
0 0 0 0 0 0 0 0 0 0 0 0 0 0 0 0 0 0 0 0 0 0
0 0 0 0 0 0 0 0 0 0 0 0 0 0 0 0 0 0 0 0 0 0
0 0 0 0 0 0 0 0 0 0 0 0 0 0 0 0 0 0 0 0 0 0
0 0 0 0 0 0 0 0 0 0 0 0 0 0 0 0 0 0 0 0 0 0
0 0 0 0 0 0 0 0 0 0 0 0 0 0 0 0 0 0 0 0 0 0
0 0 0 0 0 0 0 0 0 0 0 0 0 0 0 0 0 0 0 0 0 0
0 0 0 0 0 0 0 0 0 0 0 0 0 0 0 0 0 0 0 0 0 0
0 0 0 0 0 0 0 0 0 0 0 0 0 0 0 0 0 0 0 0 0 0
0 0 0 0 0 0 0 0 0 0 0 0 0 0 0 0 0 0 0 0 0 0
0 0 0 0 0 0 0 0 0 0 0 0 0 0 0 0 0 0 0 0 0 0
0 0 0 0 0 0 0 0 0 0 0 0 0 0 0 0 0 0 0 0 0 0
0 0 0 0 0 0 0 0 0 0 0 0 0 0 0 0 0 0 0 0 0 0
0 0 0 0 0 0 0 0 0 0 0 0 0 0 0 0 0 0 0 0 0 0
CIN
-0 -0 -0 -0 -0 -0 -0 -0 -0 -0 -0 -0 -0 -0 -0 -0 -0 -0 -0 -0 -0 -0
-0 -0 -0 -0 -0 -0 -0 -0 -0 -0 -0 -0 -0 -0 -0 -0 -0 -0 -0 -0 -0 -0
-0 -0 -0 -0 -0 -0 -0 -0 -0 -0 -0 -0 -0 -0 -0 -0 -0 -0 -0 -0 -0 -0
-0 -0 -0 -0 -0 -0 -0 -0 -0 -0 -0 -0 -0 -0 -0 -0 -0 -0 -0 -0 -0 -0
-0 -0 -0 -0 -0 -0 -0 -0 -0 -0 -0 -0 -0 -0 -0 -0 -0 -0 -0 -0 -0 -0
-0 -0 -0 -0 -0 -0 -0 -0 -0 -0 -0 -0 -0 -0 -0 -0 -0 -0 -0 -0 -0 -0
-0 -0 -0 -0 -0 -0 -0 -0 -0 -0 -0 -0 -0 -0 -0 -0 -0 -0 -0 -0 -0 -0
-0 -0 -0 -0 -0 -0 -0 -0 -0 -0 -0 -0 -0 -0 -0 -0 -0 -0 -0 -0 -0 -0
-0 -0 -0 -0 -0 -0 -0 -0 -0 -0 -0 -0 -0 -0 -0 -0 -0 -0 -0 -0 -0 -0
-0 -0 -0 -0 -0 -0 -0 -0 -0 -0 -0 -0 -0 -0 -0 -0 -0 -0 -0 -0 -0 -0
-0 -0 -0 -0 -0 -0 -0 -0 -0 -0 -0 -0 -0 -0 -0 -0 -0 -0 -0 -0 -0 -0
-0 -0 -0 -0 -0 -0 -0 -0 -0 -0 -0 -0 -0 -0 -0 -0 -0 -0 -0 -0 -0 -0
-0 -0 -0 -0 -0 -0 -0 -0 -0 -0 -0 -0 -0 -0 -0 -0 -0 -0 -0 -0 -0 -0
-0 -0 -0 -0 -0 -0 -0 -0 -0 -0 -0 -0 -0 -0 -0 -0 -0 -0 -0 -0 -0 -0
Wind_Speed
16 17 17 20 22 24 26 25 20 14 13 12 11 9 8 7 6 6 5 5 5 5
18 18 18 21 28 30 30 29 22 18 16 15 13 12 11 10 9 8 7 7 7 7
19 19 21 25 29 33 31 28 24 20 19 18 16 15 13 13 12 11 10 10 9 9
23 21 22 24 33 35 35 31 26 22 21 21 19 18 17 16 15 14 14 13 12 11
29 27 28 30 31 33 31 30 27 26 24 24 23 22 21 20 19 18 17 16 15 15
29 29 32 35 36 36 36 34 31 29 28 27 26 25 25 24 23 22 20 19 18 18
31 31 32 35 38 38 37 37 34 32 31 31 30 29 28 27 26 26 24 23 22 21
34 33 33 33 36 38 39 39 37 36 35 34 33 32 30 30 29 29 28 27 25 24
35 35 36 35 35 35 37 39 39 39 37 36 35 33 31 31 32 31 31 30 28 27
36 36 37 38 37 36 36 36 38 39 38 39 38 36 34 32 33 33 33 32 31 30
38 38 38 39 40 39 37 37 38 39 39 39 39 36 35 34 34 36 36 35 34 33
41 41 41 40 40 40 41 40 39 39 40 41 41 38 37 35 36 38 37 36 35 34
43 43 43 42 41 39 40 42 41 42 41 41 43 40 38 37 38 40 39 38 38 36
45 45 45 45 43 42 41 40 41 43 43 43 43 42 40 38 39 41 41 41 41 40
Wind_Direction
257 266 265 271 269 264 262 262 260 244 242 236 237 234 240 249 247 255 247 252 262 286
263 260 264 267 267 263 262 262 261 254 244 245 239 237 238 243 240 247 247 247 257 265
267 266 267 271 267 263 262 262 261 256 253 251 249 246 244 250 258 255 258 263 256 259
274 272 272 270 268 264 262 262 259 255 254 254 251 248 250 255 258 256 265 263 258 257
278 276 275 273 271 268 265 262 259 258 254 254 253 252 250 252 258 257 258 259 261 259
283 279 276 274 271 269 267 266 264 260 257 254 253 252 251 253 255 257 258 260 258 261
290 285 280 276 273 271 269 268 266 264 262 261 260 258 256 255 257 259 261 262 261 261
295 291 287 282 278 275 272 270 269 268 267 266 263 262 259 258 258 260 262 263 262 261
306 298 291 288 284 281 277 274 271 269 268 267 266 264 258 259 261 261 261 261 261 262
314 306 300 293 288 284 282 280 276 273 270 269 268 267 263 258 263 264 261 262 263 262
311 308 306 301 295 289 285 282 280 278 275 273 271 268 264 263 262 267 267 265 264 264
308 306 305 304 300 297 290 285 283 282 279 276 275 272 267 264 265 264 266 266 264 263
306 304 303 302 303 302 298 291 287 284 282 280 279 276 272 267 267 266 266 267 268 261
303 302 302 301 301 301 300 298 293 288 286 283 281 280 277 271 268 268 270 269 269 269